Regional Weather Roundup
Issued by NWS

Home | Current Version | Previous Version | Text Only | Print | Product List | Glossary Off
Versions: 1 2 3 4 5 6 7 8 9 10 11 12 13 14 15 16 17 18 19 20 21 22 23 24 25 26 27 28 29 30 31 32 33 34 35 36 37 38 39 40 41 42 43 44 45 46 47 48 49 50

000
ASUS43 KIND 232200
RWRIN

WEATHER ROUNDUP FOR INDIANA
NATIONAL WEATHER SERVICE INDIANAPOLIS IN
600 PM EDT TUE MAY 23 2017

NOTE: "FAIR" INDICATES FEW OR NO CLOUDS BELOW 12,000 FEET WITH NO
SIGNIFICANT WEATHER AND/OR OBSTRUCTIONS TO VISIBILITY.

* - STATION DOES NOT REPORT WEATHER SUCH AS PRECIPITATION OR FOG.

+ - STATION NOT QUALITY CONTROLLED BY THE NATIONAL WEATHER SERVICE.
    USE DATA WITH CAUTION...ESPECIALLY DEWPOINT AND RELATIVE
    HUMIDITY OBSERVATIONS.

INZ001>003-010>013-019-020-232300-
NORTHWEST INDIANA

CITY           SKY/WX    TMP DP  RH WIND       PRES   REMARKS
GARY /AIRPORT/ CLOUDY    59  52  77 NE7       29.73F
MICHIGAN CITY+ CLOUDY    63  55  77 NE3       29.72F
MONTICELLO +   PTSUNNY   69  49  49 CALM      29.69F
RENSSELAER +   CLOUDY    66  46  48 E5        29.70F

$$

LMZ046-743>745-232300-
SOUTHERN LAKE MICHIGAN

STATION/POSITION TIME  TEMP    WIND        PRES    WAVE
                       AIR SEA DIR/SP/G            HT
                 (UTC) (F)     (DEG/KT/KT) (MB)    (FT)
BURNS HARBOR     2130   57      70/  9/ 11 1006.8F
MICHIGAN CITY    2130   56      30/  7/  8   N/A
5NW MICH CITY    2150   55 54   50/  8/ 10   N/A     1

$$

INZ004-005-014>016-021>024-232300-
NORTH CENTRAL INDIANA

CITY           SKY/WX    TMP DP  RH WIND       PRES   REMARKS
ELKHART        PTSUNNY   63  55  77 N12       29.74F
GOSHEN         CLOUDY    64  54  69 NE12      29.73F
SOUTH BEND     CLOUDY    63  59  87 E9        29.73F

$$

INZ006>009-017-018-025>027-232300-
NORTHEAST INDIANA

CITY           SKY/WX    TMP DP  RH WIND       PRES   REMARKS
ANGOLA *+      SUNNY     70  61  73 SE3       29.73F
FORT WAYNE     PTSUNNY   75  47  36 E7        29.70F
KENDALLVILLE + CLOUDY    69  45  41 CALM      29.73F

$$

INZ028-029-035-036-043>045-051>053-232300-
WEST CENTRAL INDIANA

CITY           SKY/WX    TMP DP  RH WIND       PRES   REMARKS
CRAWFORDSVL +  MOSUNNY   70  45  41 E6        29.69F
GREENCASTLE +  MOSUNNY   72  46  40 CALM      29.69F
LAFAYETTE      CLOUDY    69  52  54 CALM      29.68F
TERRE HAUTE    CLOUDY    72  46  39 CALM      29.68F

$$

INZ030>032-037>040-046>048-054>057-064-065-232300-
CENTRAL INDIANA

CITY           SKY/WX    TMP DP  RH WIND       PRES   REMARKS
INDIANAPOLIS   PTSUNNY   72  50  45 SE6       29.67F
-EAGLE CREEK   PTSUNNY   74  44  34 S6        29.67F
KOKOMO +       SUNNY     74  50  42 N8        29.70F
SHELBYVILLE    MOSUNNY   74  46  36 SW3       29.67F

$$

INZ033-034-041-042-049-050-058-059-232300-
EAST CENTRAL INDIANA

CITY           SKY/WX    TMP DP  RH WIND       PRES   REMARKS
MUNCIE         CLOUDY    75  38  26 SE7       29.69F
RICHMOND +     MOSUNNY   70  45  40 E3        29.70F

$$

INZ060-061-067>069-081>083-085>088-232300-
SOUTHWEST INDIANA

CITY           SKY/WX    TMP DP  RH WIND       PRES   REMARKS
EVANSVILLE     CLOUDY    76  51  41 NW6       29.67F
HUNTINGBURG *+ PTSUNNY   73  54  51 CALM      29.67F

$$

INZ062-063-066-070>080-084-089>092-232300-
SOUTH CENTRAL AND SOUTHEAST INDIANA

CITY           SKY/WX    TMP DP  RH WIND       PRES   REMARKS
BLOOMINGTON    MOSUNNY   71  48  43 SW3       29.68F
MADISON *+     PTSUNNY   73  45  35 CALM      29.69F
SEYMOUR +      CLOUDY    75  45  33 E3        29.68

$$




USA.gov is the U.S. government's official web portal to all federal, state and local government web resources and services.